Weather History for Johnstown, PA

Change the Weather History Date:

Wednesday, June 5, 2013

  Actual Average Record
Temperature  
Mean Temperature 59 °F 62 °F  
Max Temperature 71 °F 71 °F 100 °F (1925)
Min Temperature 48 °F 53 °F 37 °F (1990)
Degree Days  
Heating Degree Days 6 5  
Month to date heating degree days 25  
Since 1 June heating degree days 25  
Since 1 July heating degree days 6634  
Cooling Degree Days 0 2  
Month to date cooling degree days 7  
Year to date cooling degree days 31  
Since 1 June cooling degree days 7  
Growing Degree Days 9 (Base 50)    
Moisture  
Dew Point 47 °F    
Average Humidity 62    
Maximum Humidity 83    
Minimum Humidity 48    
Precipitation  
Precipitation 0.00 in 0.15 in 1.54 in (1941)
Month to date precipitation 0.75  
Year to date precipitation 17.39  
Sea Level Pressure  
Sea Level Pressure 30.10 in    
Wind  
Wind Speed 5 mph (SE)    
Max Wind Speed 12 mph    
Max Gust Speed 18 mph    
Visibility 10 miles    
Events      
T = Trace of Precipitation, MM = Missing Value Source: NWS Daily Summary

Daily Weather History Graph

Daily Weather History Graph

Search for Another Location

Airport:

Trip Planner

Search our weather history database for the weather conditions in past years. The results will help you decide how hot, cold, wet, or windy it might be!

Date:

Astronomy

Jun. 05, 2013 Rise Set
Actual Time 5:46 AM EDT 8:41 PM EDT
Civil Twilight 5:13 AM EDT 9:14 PM EDT
Nautical Twilight 4:32 AM EDT 9:56 PM EDT
Astronomical Twilight 3:44 AM EDT 10:43 PM EDT
Moon 3:49 AM EDT (6/5) 6:06 PM EDT (6/5)
Length of Visible Light 16h 01m
Length of Day
14h 55m
Waning Crescent, 8% of the Moon is Illuminated
Jun 5
Waning Crescent
Jun 8
New
Jun 16
First Quarter
Jun 23
Full
Jun 30
Last Quarter

Hourly Weather History & Observations

Time (EDT) Temp. Dew Point Humidity Pressure Visibility Wind Dir Wind Speed Gust Speed Precip Events Conditions
12:54 AM 55.0 °F 41.0 °F 59% 30.16 in 10.0 mi Calm Calm - N/A   Clear
1:54 AM 55.0 °F 41.0 °F 59% 30.15 in 10.0 mi Calm Calm - N/A   Clear
2:54 AM 52.0 °F 41.0 °F 66% 30.14 in 10.0 mi Calm Calm - N/A   Clear
3:54 AM 50.0 °F 42.1 °F 74% 30.14 in 10.0 mi East 3.5 mph - N/A   Clear
4:54 AM 48.9 °F 42.1 °F 77% 30.15 in 10.0 mi East 4.6 mph - N/A   Clear
5:54 AM 48.0 °F 43.0 °F 83% 30.16 in 10.0 mi ENE 6.9 mph - N/A   Clear
6:54 AM 48.9 °F 42.1 °F 77% 30.18 in 10.0 mi East 5.8 mph - N/A   Clear
7:54 AM 53.1 °F 39.9 °F 61% 30.18 in 10.0 mi East 6.9 mph - N/A   Clear
8:54 AM 57.9 °F 43.0 °F 58% 30.18 in 10.0 mi Variable 4.6 mph - N/A   Clear
9:54 AM 63.0 °F 44.1 °F 50% 30.14 in 10.0 mi SSE 10.4 mph 17.3 mph N/A   Clear
10:54 AM 64.0 °F 44.1 °F 48% 30.14 in 10.0 mi SSE 11.5 mph 18.4 mph N/A   Clear
11:54 AM 66.0 °F 46.9 °F 50% 30.12 in 10.0 mi SSE 11.5 mph 18.4 mph N/A   Clear
12:54 PM 66.9 °F 50.0 °F 54% 30.09 in 10.0 mi SE 9.2 mph - N/A   Mostly Cloudy
1:54 PM 69.1 °F 51.1 °F 53% 30.08 in 10.0 mi Variable 6.9 mph 17.3 mph N/A   Clear
2:54 PM 70.0 °F 51.1 °F 51% 30.09 in 10.0 mi ESE 9.2 mph 17.3 mph 0.00 in   Scattered Clouds
3:54 PM 70.0 °F 52.0 °F 53% 30.08 in 10.0 mi SE 11.5 mph 16.1 mph N/A   Partly Cloudy
4:54 PM 70.0 °F 54.0 °F 57% 30.08 in 10.0 mi SSE 5.8 mph - N/A   Scattered Clouds
5:54 PM 70.0 °F 53.1 °F 55% 30.06 in 10.0 mi SSE 10.4 mph - N/A   Scattered Clouds
6:54 PM 66.9 °F 53.1 °F 61% 30.05 in 10.0 mi SE 8.1 mph 18.4 mph N/A   Clear
7:54 PM 66.0 °F 53.1 °F 63% 30.03 in 10.0 mi SE 10.4 mph 17.3 mph N/A   Mostly Cloudy
8:54 PM 64.0 °F 52.0 °F 65% 30.03 in 10.0 mi SE 9.2 mph 17.3 mph N/A   Mostly Cloudy
9:54 PM 63.0 °F 52.0 °F 67% 30.01 in 10.0 mi SE 8.1 mph - N/A   Clear
10:54 PM 62.1 °F 53.1 °F 72% 30.02 in 10.0 mi SSE 9.2 mph - N/A   Clear
11:54 PM 62.1 °F 54.0 °F 75% 30.01 in 10.0 mi SE 10.4 mph 18.4 mph N/A   Clear